| time (UTC) | temp C | wind direction | speed KPH | gust KPH | rain 1hr cm | rain 24hr cm | rain mn cm | humidity % | barometer mb |
| 20260507074549 | -17 | 250 | 9.7 | 19.3 | 0.00 | 0.05 | 0.00 | 1012.0 | |
| 20260507073027 | -17 | 281 | 14.5 | 22.5 | 0.00 | 0.05 | 0.00 | 1012.1 | |
| 20260507071522 | -17 | 265 | 11.3 | 19.3 | 0.00 | 0.05 | 0.00 | 1011.9 | |
| 20260507070021 | -17 | 289 | 11.3 | 24.1 | 0.00 | 0.05 | 0.00 | 1011.8 | |
| 20260507064513 | -17 | 265 | 8.0 | 19.3 | 0.00 | 0.05 | 0.00 | 1011.8 | |
| 20260507063016 | -17 | 260 | 12.9 | 22.5 | 0.00 | 0.05 | 0.00 | 1011.8 | |
| 20260507061504 | -17 | 272 | 6.4 | 20.9 | 0.00 | 0.05 | 0.00 | 1011.9 | |
| 20260507060105 | -17 | 282 | 8.0 | 17.7 | 0.00 | 0.05 | 0.00 | 1011.9 | |
| 20260507054637 | -17 | 261 | 3.2 | 14.5 | 0.00 | 0.05 | 0.00 | 1011.7 | |
| 20260507053053 | -17 | 260 | 3.2 | 12.9 | 0.00 | 0.05 | 0.00 | 1011.7 | |
| 20260507051547 | -17 | 259 | 3.2 | 14.5 | 0.00 | 0.05 | 0.00 | 1011.4 | |
| 20260507050042 | -17 | 276 | 0.0 | 9.7 | 0.00 | 0.05 | 0.00 | 1011.2 | |
| 20260507044546 | -17 | 270 | 1.6 | 9.7 | 0.00 | 0.05 | 0.00 | 1011.0 | |
| 20260507043033 | -17 | 271 | 0.0 | 14.5 | 0.00 | 0.05 | 0.00 | 1010.7 | |
| 20260507041529 | -17 | 274 | 1.6 | 11.3 | 0.00 | 0.05 | 0.00 | 1010.6 | |
| 20260507040027 | -17 | 276 | 6.4 | 14.5 | 0.00 | 0.05 | 0.00 | 1010.5 | |
| 20260507034520 | -17 | 277 | 4.8 | 12.9 | 0.00 | 0.05 | 0.00 | 1010.5 | |
| 20260507033021 | -17 | 279 | 3.2 | 12.9 | 0.00 | 0.05 | 0.00 | 1010.3 | |
| 20260507031511 | -17 | 277 | 3.2 | 12.9 | 0.00 | 0.05 | 0.00 | 1010.2 | |
| 20260507030007 | -17 | 278 | 0.0 | 6.4 | 0.00 | 0.05 | 0.00 | 1010.1 | |
| 20260507024503 | -17 | 277 | 3.2 | 12.9 | 0.00 | 0.05 | 0.00 | 1010.1 | |
| 20260507023106 | -17 | 279 | 4.8 | 12.9 | 0.00 | 0.05 | 0.00 | 1010.0 | |
| 20260507021554 | -17 | 257 | 1.6 | 11.3 | 0.00 | 0.05 | 0.00 | 1010.0 | |
| 20260507020055 | -17 | 260 | 1.6 | 14.5 | 0.00 | 0.05 | 0.00 | 1010.0 | |
| 20260507014551 | -17 | 269 | 4.8 | 14.5 | 0.00 | 0.05 | 0.00 | 1009.9 | |
| 20260507013044 | -17 | 277 | 3.2 | 12.9 | 0.00 | 0.05 | 0.00 | 1009.7 | |
| 20260507011538 | -17 | 265 | 0.0 | 4.8 | 0.00 | 0.05 | 0.00 | 1009.7 | |
| 20260507010034 | -17 | 266 | 1.6 | 12.9 | 0.00 | 0.05 | 0.00 | 1009.7 | |
| 20260507004527 | -17 | 273 | 3.2 | 20.9 | 0.00 | 0.05 | 0.00 | 1009.7 | |
| 20260507003022 | -17 | 267 | 4.8 | 17.7 | 0.00 | 0.05 | 0.00 | 1009.6 | |
| 20260507001524 | -17 | 266 | 6.4 | 16.1 | 0.00 | 0.05 | 0.00 | 1009.5 | |
| 20260507000016 | -17 | 269 | 6.4 | 16.1 | 0.00 | 0.05 | 0.00 | 1009.6 | |
| 20260506234513 | -17 | 260 | 3.2 | 12.9 | 0.00 | 0.05 | 0.00 | 1009.5 | |
| 20260506233005 | -17 | 261 | 4.8 | 12.9 | 0.00 | 0.05 | 0.00 | 1009.4 | |
| 20260506231501 | -17 | 270 | 8.0 | 19.3 | 0.00 | 0.05 | 0.00 | 1009.3 | |
| 20260506230056 | -17 | 271 | 4.8 | 14.5 | 0.00 | 0.05 | 0.00 | 1009.2 | |
| 20260506224552 | -17 | 255 | 4.8 | 16.1 | 0.00 | 0.05 | 0.00 | 1009.0 | |
| 20260506223047 | -17 | 244 | 4.8 | 16.1 | 0.00 | 0.05 | 0.00 | 1009.0 | |
| 20260506221543 | -17 | 280 | 8.0 | 17.7 | 0.00 | 0.05 | 0.00 | 1008.7 | |
| 20260506220039 | -17 | 254 | 1.6 | 11.3 | 0.00 | 0.05 | 0.00 | 1008.7 | |
| 20260506214536 | -17 | 266 | 4.8 | 17.7 | 0.00 | 0.05 | 0.05 | 1008.4 | |
| 20260506213031 | -17 | 244 | 4.8 | 17.7 | 0.00 | 0.05 | 0.05 | 1008.2 | |
| 20260506211526 | -17 | 265 | 8.0 | 24.1 | 0.00 | 0.05 | 0.05 | 1008.1 | |
| 20260506210021 | -17 | 263 | 11.3 | 27.4 | 0.00 | 0.05 | 0.05 | 1007.7 | |
| 20260506204523 | -17 | 298 | 14.5 | 32.2 | 0.00 | 0.05 | 0.05 | 1007.5 | |
| 20260506203012 | -17 | 263 | 14.5 | 32.2 | 0.00 | 0.05 | 0.05 | 1007.1 | |
| 20260506201509 | -17 | 253 | 11.3 | 46.7 | 0.03 | 0.05 | 0.05 | 1007.1 | |
| 20260506200004 | -17 | 255 | 8.0 | 24.1 | 0.05 | 0.05 | 0.05 | 1006.7 | |
| 20260506194634 | -17 | 243 | 6.4 | 20.9 | 0.05 | 0.05 | 0.05 | 1006.4 | |
| 20260506193104 | -17 | 269 | 3.2 | 17.7 | 0.05 | 0.05 | 0.05 | 1006.0 | |
| 20260506191551 | -17 | 277 | 8.0 | 25.7 | 0.03 | 0.05 | 0.03 | 1005.7 | |
| 20260506190050 | -17 | 257 | 12.9 | 32.2 | 0.00 | 0.03 | 0.00 | 1005.4 | |
| 20260506184542 | -17 | 248 | 14.5 | 25.7 | 0.00 | 0.25 | 0.00 | 1004.8 | |
| 20260506183037 | -17 | 294 | 9.7 | 35.4 | 0.00 | 0.25 | 0.00 | 1003.7 | |
| 20260506181533 | -17 | 310 | 16.1 | 27.4 | 0.00 | 0.25 | 0.00 | 1003.0 | |
| 20260506180034 | -17 | 299 | 19.3 | 41.8 | 0.00 | 0.25 | 0.00 | 1003.0 | |
| 20260506174525 | -17 | 244 | 11.3 | 49.9 | 0.00 | 0.25 | 0.00 | 1002.5 | |
| 20260506173019 | -17 | 261 | 4.8 | 17.7 | 0.00 | 0.25 | 0.00 | 1001.2 | |
| 20260506171515 | -17 | 130 | 1.6 | 12.9 | 0.00 | 0.25 | 0.00 | 1000.1 | |
| 20260506170011 | -17 | 155 | 8.0 | 17.7 | 0.00 | 0.25 | 0.00 | 999.7 | |
| 20260506164506 | -17 | 145 | 8.0 | 27.4 | 0.00 | 0.25 | 0.00 | 999.5 | |
| 20260506163002 | -17 | 135 | 6.4 | 22.5 | 0.00 | 0.25 | 0.00 | 1000.0 | |
| 20260506161611 | -17 | 130 | 3.2 | 20.9 | 0.00 | 0.25 | 0.00 | 1000.3 | |
| 20260506160054 | -17 | 129 | 3.2 | 16.1 | 0.00 | 0.25 | 0.00 | 1000.3 | |
| 20260506154607 | -17 | 99 | 11.3 | 19.3 | 0.00 | 0.25 | 0.00 | 1000.6 | |
| 20260506153051 | -17 | 104 | 3.2 | 24.1 | 0.00 | 0.25 | 0.00 | 1000.8 | |
| 20260506151539 | -17 | 108 | 6.4 | 19.3 | 0.00 | 0.25 | 0.00 | 1001.0 | |
| 20260506150035 | -17 | 88 | 9.7 | 17.7 | 0.00 | 0.25 | 0.00 | 1001.2 | |
| 20260506144530 | -17 | 92 | 4.8 | 16.1 | 0.00 | 0.25 | 0.00 | 1001.3 | |
| 20260506143033 | -17 | 73 | 8.0 | 17.7 | 0.00 | 0.25 | 0.00 | 1001.4 | |
| 20260506141521 | -17 | 61 | 4.8 | 12.9 | 0.00 | 0.25 | 0.00 | 1001.6 | |
| 20260506140017 | -17 | 93 | 6.4 | 14.5 | 0.00 | 0.25 | 0.00 | 1001.8 | |
| 20260506134513 | -17 | 51 | 0.0 | 9.7 | 0.00 | 0.25 | 0.00 | 1002.1 | |
| 20260506133008 | -17 | 96 | 6.4 | 12.9 | 0.00 | 0.25 | 0.00 | 1002.3 | |
| 20260506131503 | -17 | 84 | 3.2 | 16.1 | 0.00 | 0.25 | 0.00 | 1002.5 | |
| 20260506124555 | -17 | 59 | 4.8 | 8.0 | 0.00 | 0.25 | 0.00 | 1003.0 | |
| 20260506123051 | -17 | 76 | 9.7 | 19.3 | 0.00 | 0.25 | 0.00 | 1003.2 | |
| 20260506121546 | -17 | 68 | 3.2 | 12.9 | 0.00 | 0.25 | 0.00 | 1003.5 | |
| 20260506120041 | -17 | 92 | 6.4 | 17.7 | 0.00 | 0.25 | 0.00 | 1003.7 | |
| 20260506114543 | -17 | 76 | 1.6 | 9.7 | 0.00 | 0.25 | 0.00 | 1004.1 | |
| 20260506113032 | -17 | 121 | 9.7 | 20.9 | 0.00 | 0.25 | 0.00 | 1004.2 | |
| 20260506111535 | -17 | 59 | 1.6 | 19.3 | 0.00 | 0.25 | 0.00 | 1004.6 | |
| 20260506110023 | -17 | 65 | 1.6 | 8.0 | 0.00 | 0.25 | 0.00 | 1004.7 | |
| 20260506104519 | -17 | 64 | 1.6 | 12.9 | 0.00 | 0.25 | 0.00 | 1004.9 | |
| 20260506103015 | -17 | 54 | 3.2 | 11.3 | 0.00 | 0.25 | 0.00 | 1005.2 | |
| 20260506101510 | -17 | 71 | 3.2 | 14.5 | 0.00 | 0.25 | 0.00 | 1005.4 | |
| 20260506100008 | -17 | 67 | 0.0 | 8.0 | 0.00 | 0.25 | 0.00 | 1005.8 | |
| 20260506094503 | -17 | 69 | 3.2 | 8.0 | 0.00 | 0.25 | 0.00 | 1005.8 | |
| 20260506093101 | -17 | 67 | 0.0 | 8.0 | 0.00 | 0.25 | 0.00 | 1005.9 | |
| 20260506091555 | -17 | 95 | 4.8 | 9.7 | 0.00 | 0.25 | 0.00 | 1005.9 | |
| 20260506090050 | -17 | 71 | 0.0 | 9.7 | 0.00 | 0.25 | 0.00 | 1005.9 | |
| 20260506084547 | -17 | 71 | 1.6 | 9.7 | 0.00 | 0.25 | 0.00 | 1006.1 | |
| 20260506083042 | -17 | 84 | 1.6 | 4.8 | 0.00 | 0.25 | 0.00 | 1006.2 | |
| 20260506081538 | -17 | 83 | 0.0 | 6.4 | 0.00 | 0.25 | 0.00 | 1006.3 |